TimeCST,TemperatureF,Dew PointF,Humidity,Sea Level PressureIn,VisibilityMPH,Wind Direction,Wind SpeedMPH,Gust SpeedMPH,PrecipitationIn,Events,Conditions,WindDirDegrees,DateUTC
12:13 AM,8.6,5.0,85,30.07,10.0,NNE,8.1,-,N/A,,Overcast,30,2013-12-15 06:13:00
12:33 AM,6.8,3.2,85,30.06,10.0,ENE,6.9,-,N/A,,Overcast,60,2013-12-15 06:33:00
12:53 AM,6.8,3.2,85,30.06,10.0,ENE,5.8,-,N/A,,Overcast,60,2013-12-15 06:53:00
1:13 AM,6.8,3.2,85,30.05,10.0,NE,3.5,-,N/A,,Overcast,50,2013-12-15 07:13:00
1:33 AM,6.8,1.4,79,30.05,10.0,ENE,3.5,-,N/A,Snow,Light Snow,60,2013-12-15 07:33:00
1:53 AM,6.8,1.4,79,30.04,10.0,NE,4.6,-,N/A,Snow,Light Snow,50,2013-12-15 07:53:00
2:13 AM,6.8,1.4,79,30.06,5.0,NE,5.8,-,N/A,Snow,Light Snow,50,2013-12-15 08:13:00
2:33 AM,6.8,1.4,79,30.06,2.5,NE,4.6,-,N/A,Snow,Light Snow,40,2013-12-15 08:33:00
2:53 AM,6.8,1.4,79,30.06,7.0,NE,5.8,-,N/A,Snow,Light Snow,40,2013-12-15 08:53:00
3:13 AM,6.8,1.4,79,30.06,7.0,NE,4.6,-,N/A,Snow,Light Snow,40,2013-12-15 09:13:00
3:33 AM,6.8,1.4,79,30.05,7.0,ENE,5.8,-,N/A,Snow,Light Snow,60,2013-12-15 09:33:00
3:53 AM,3.2,-0.4,85,30.07,10.0,NE,6.9,-,N/A,,Overcast,40,2013-12-15 09:53:00
4:13 AM,3.2,-0.4,85,30.05,10.0,NE,5.8,-,N/A,,Overcast,50,2013-12-15 10:13:00
4:33 AM,3.2,-0.4,85,30.04,10.0,East,5.8,-,N/A,,Overcast,80,2013-12-15 10:33:00
4:53 AM,3.2,-2.2,78,30.04,10.0,ENE,4.6,-,N/A,,Overcast,70,2013-12-15 10:53:00
5:13 AM,3.2,-2.2,78,30.06,10.0,NE,8.1,-,N/A,,Overcast,40,2013-12-15 11:13:00
5:33 AM,1.4,-2.2,85,30.04,10.0,ENE,8.1,-,N/A,,Overcast,60,2013-12-15 11:33:00
5:53 AM,1.4,-2.2,85,30.03,10.0,ENE,4.6,-,N/A,,Overcast,60,2013-12-15 11:53:00
6:13 AM,1.4,-2.2,85,30.03,10.0,ENE,8.1,-,N/A,,Overcast,60,2013-12-15 12:13:00
6:33 AM,1.4,-2.2,85,30.02,10.0,ENE,9.2,-,N/A,,Overcast,70,2013-12-15 12:33:00
6:53 AM,1.4,-4.0,78,30.02,10.0,ENE,6.9,-,N/A,,Overcast,60,2013-12-15 12:53:00
7:13 AM,1.4,-4.0,78,30.03,10.0,East,5.8,-,N/A,,Overcast,80,2013-12-15 13:13:00
7:33 AM,1.4,-5.8,72,30.04,10.0,ENE,4.6,-,N/A,Snow,Light Snow,70,2013-12-15 13:33:00
7:53 AM,1.4,-5.8,72,30.03,10.0,ENE,5.8,-,N/A,,Overcast,60,2013-12-15 13:53:00
8:13 AM,1.4,-5.8,72,30.03,10.0,ENE,4.6,-,N/A,,Overcast,70,2013-12-15 14:13:00
8:33 AM,1.4,-4.0,78,30.03,10.0,East,4.6,-,N/A,,Overcast,100,2013-12-15 14:33:00
8:53 AM,1.4,-4.0,78,30.04,10.0,ENE,4.6,-,N/A,,Overcast,70,2013-12-15 14:53:00
9:13 AM,1.4,-4.0,78,30.04,10.0,ENE,4.6,-,N/A,,Overcast,70,2013-12-15 15:13:00
9:33 AM,1.4,-4.0,78,30.05,10.0,East,3.5,-,N/A,,Overcast,80,2013-12-15 15:33:00
9:53 AM,1.4,-4.0,78,30.05,10.0,ENE,5.8,-,N/A,,Overcast,70,2013-12-15 15:53:00
10:13 AM,3.2,-4.0,72,30.05,10.0,East,4.6,-,N/A,Snow,Light Snow,90,2013-12-15 16:13:00
10:33 AM,3.2,-4.0,72,30.05,10.0,ENE,8.1,-,N/A,,Overcast,70,2013-12-15 16:33:00
10:53 AM,3.2,-2.2,78,30.04,10.0,ENE,3.5,-,N/A,,Overcast,70,2013-12-15 16:53:00
11:13 AM,3.2,-2.2,78,30.04,10.0,East,6.9,-,N/A,,Overcast,90,2013-12-15 17:13:00
11:33 AM,3.2,-2.2,78,30.02,10.0,East,9.2,-,N/A,,Overcast,100,2013-12-15 17:33:00
11:53 AM,3.2,-2.2,78,30.01,10.0,ESE,6.9,-,N/A,,Mostly Cloudy,120,2013-12-15 17:53:00
12:13 PM,3.2,-2.2,78,30.00,10.0,ESE,8.1,-,N/A,,Mostly Cloudy,120,2013-12-15 18:13:00
12:33 PM,3.2,-2.2,78,30.00,10.0,ESE,8.1,-,N/A,,Mostly Cloudy,120,2013-12-15 18:33:00
12:53 PM,3.2,-2.2,78,29.98,10.0,ESE,6.9,-,N/A,,Mostly Cloudy,110,2013-12-15 18:53:00
1:13 PM,3.2,-0.4,85,29.99,7.0,ESE,6.9,-,N/A,Snow,Light Snow,120,2013-12-15 19:13:00
1:33 PM,3.2,-2.2,78,29.98,4.0,ESE,6.9,-,N/A,Snow,Light Snow,110,2013-12-15 19:33:00
1:53 PM,3.2,-0.4,85,29.98,1.8,SE,4.6,-,N/A,Snow,Light Snow,130,2013-12-15 19:53:00
2:13 PM,3.2,-0.4,85,29.99,2.5,East,6.9,-,N/A,Snow,Light Snow,100,2013-12-15 20:13:00
2:33 PM,3.2,-0.4,85,29.98,2.5,ESE,6.9,-,N/A,Snow,Light Snow,110,2013-12-15 20:33:00
2:53 PM,3.2,-0.4,85,29.97,2.5,ESE,9.2,-,N/A,Snow,Light Snow,110,2013-12-15 20:53:00
3:13 PM,3.2,-0.4,85,29.97,1.8,ESE,8.1,-,N/A,Snow,Light Snow,110,2013-12-15 21:13:00
3:33 PM,5.0,-0.4,78,29.97,10.0,ESE,6.9,-,N/A,Snow,Light Snow,120,2013-12-15 21:33:00
3:53 PM,3.2,-0.4,85,29.97,10.0,ESE,10.4,-,N/A,Snow,Light Snow,120,2013-12-15 21:53:00
4:13 PM,3.2,-0.4,85,29.96,10.0,ESE,9.2,-,N/A,,Overcast,110,2013-12-15 22:13:00
4:33 PM,5.0,-0.4,78,29.96,10.0,ESE,9.2,-,N/A,,Overcast,120,2013-12-15 22:33:00
4:53 PM,3.2,-0.4,85,29.97,2.5,ESE,9.2,-,N/A,Snow,Light Snow,120,2013-12-15 22:53:00
5:13 PM,5.0,-0.4,78,29.98,7.0,ESE,9.2,-,N/A,Snow,Light Snow,110,2013-12-15 23:13:00
5:33 PM,5.0,-0.4,78,29.98,4.0,ESE,8.1,-,N/A,Snow,Light Snow,110,2013-12-15 23:33:00
5:53 PM,5.0,-0.4,78,29.99,10.0,ESE,9.2,-,N/A,,Overcast,110,2013-12-15 23:53:00
6:13 PM,5.0,-0.4,78,29.98,10.0,ESE,8.1,-,N/A,Snow,Light Snow,120,2013-12-16 00:13:00
6:33 PM,5.0,-0.4,78,29.98,10.0,ESE,8.1,-,N/A,,Overcast,120,2013-12-16 00:33:00
6:53 PM,5.0,-0.4,78,29.98,10.0,ESE,9.2,-,N/A,,Overcast,120,2013-12-16 00:53:00
7:13 PM,5.0,-0.4,78,29.97,10.0,SE,10.4,-,N/A,,Overcast,130,2013-12-16 01:13:00
7:33 PM,5.0,-0.4,78,29.96,10.0,SE,9.2,-,N/A,,Overcast,140,2013-12-16 01:33:00
7:53 PM,5.0,1.4,85,29.97,10.0,SE,9.2,-,N/A,,Overcast,130,2013-12-16 01:53:00
8:13 PM,5.0,1.4,85,29.99,10.0,ESE,8.1,-,N/A,,Overcast,120,2013-12-16 02:13:00
8:33 PM,5.0,1.4,85,29.99,10.0,ESE,8.1,-,N/A,,Overcast,120,2013-12-16 02:33:00
8:53 PM,5.0,1.4,85,29.97,10.0,ESE,9.2,-,N/A,,Overcast,120,2013-12-16 02:53:00
9:13 PM,5.0,1.4,85,29.97,10.0,SE,9.2,-,N/A,,Overcast,140,2013-12-16 03:13:00
9:33 PM,5.0,1.4,85,29.96,10.0,SE,9.2,-,N/A,,Overcast,130,2013-12-16 03:33:00
9:53 PM,5.0,1.4,85,29.96,10.0,SE,9.2,-,N/A,,Overcast,130,2013-12-16 03:53:00
10:13 PM,5.0,1.4,85,29.96,10.0,SE,9.2,-,N/A,,Overcast,130,2013-12-16 04:13:00
10:33 PM,5.0,1.4,85,29.97,10.0,SE,10.4,-,N/A,,Overcast,130,2013-12-16 04:33:00
10:53 PM,5.0,1.4,85,29.96,10.0,SE,9.2,-,N/A,,Overcast,130,2013-12-16 04:53:00
11:13 PM,6.8,1.4,79,29.96,10.0,SE,10.4,-,N/A,,Overcast,140,2013-12-16 05:13:00
11:33 PM,6.8,1.4,79,29.95,10.0,SE,8.1,-,N/A,,Overcast,140,2013-12-16 05:33:00
11:53 PM,6.8,1.4,79,29.95,10.0,SE,10.4,-,N/A,Snow,Light Snow,140,2013-12-16 05:53:00